Location: Unspecified
(0.0000°N, 0.0000°E)
Time: 09:34:03
(UTC+02:00)

Cosmos 2228 - Visible Passes

Search period start: 26 May 2015 00:00
Search period end: 05 June 2015 00:00
Orbit: 592 x 623 km, 82.5° (Epoch: 26 May)

Date Brightness Start Highest point End Pass type
(mag) Time Alt. Az. Time Alt. Az. Time Alt. Az.
26 May 4.2 21:52:08 10° N 21:54:40 35° N 21:54:40 35° N visible
27 May 4.4 22:06:01 10° NNW 22:09:07 36° WNW 22:09:07 36° WNW visible
28 May 4.7 20:44:07 10° NE 20:46:16 14° E 20:46:39 14° E visible
28 May 5.3 22:20:30 10° NW 22:23:37 21° W 22:23:37 21° W visible
29 May 3.9 20:56:19 10° NNE 20:59:59 28° E 21:01:12 24° ESE visible
30 May 3.0 21:09:25 10° N 21:13:39 59° E 21:15:48 28° SSE visible
31 May 3.4 21:23:01 10° NNW 21:27:17 65° W 21:30:27 18° S visible
01 Jun 4.8 21:37:07 10° NNW 21:40:58 31° W 21:44:48 10° SSW visible
02 Jun 5.9 21:52:00 10° WNW 21:54:41 16° W 21:57:10 10° SW visible
03 Jun 3.6 20:26:50 10° NNE 20:30:51 38° E 20:34:57 10° SSE visible
04 Jun 3.0 20:40:10 10° N 20:44:30 82° E 20:48:53 10° S visible
